Location: Doschendorf
(50.0069°N, 11.0602°E)
Time: 08:20:28
(UTC+00:00)

Okean-O - Pass Details

Date: 17 November 2019
Orbit: 638 x 641 km, 98.2° (Epoch: 09 December)

Event Time Altitude Azimuth Distance (km) Brightness Sun altitude
Rises 16:14:53 0° 144° (SE) 2,937 5.9 -7.4°
Reaches altitude 10° 16:17:09 10° 138° (SE) 2,032 5.0 -7.8°
Maximum altitude 16:21:19 42° 68° (ENE) 926 3.0 -8.4°
Drops below altitude 10° 16:25:30 10° 358° (N) 2,046 5.1 -9.0°
Sets 16:27:48 0° 351° (N) 2,959 5.9 -9.4°
